Location: Unspecified
(48.2082°N, 0.0000°E)
Time: 18:46:36
(UTC+00:00)

A-11 Canister half - Pass Details

Date: 22 June 2019
Orbit: 1514 x 1685 km, 47.2° (Epoch: 18 July)

Event Time Altitude Azimuth Distance (km) Brightness Sun altitude
Rises 17:41:45 0° 290° (WNW) 4,766 13.1 20.5°
Reaches altitude 10° 17:45:30 10° 279° (W) 3,753 13.4 19.9°
Maximum altitude 17:52:47 26° 227° (SW) 2,658 10.9 18.7°
Drops below altitude 10° 17:59:57 10° 176° (S) 3,671 10.9 17.6°
Sets 18:03:35 0° 164° (SSE) 4,643 11.2 17.0°
